This is the latest recevied weather packets stored in our database for station/object KB2EAR-13. If no packets are shown the sender has not sent any weather packets the latest 10 day(s).
| Time | Temp. | Humidity | Pressure | Rain* | Wind** | Luminosity | Snow |
|---|---|---|---|---|---|---|---|
| 1778205618 | 11.11° C | 73% | 1010.2 hPa | 0 mm | - | - | - |
| 1778205356 | 11.11° C | 72% | 1010.2 hPa | 0 mm | - | - | - |
| 1778205318 | 11.11° C | 72% | 1010.2 hPa | 0 mm | - | - | - |
| 1778205018 | 11.11° C | 71% | 1010.1 hPa | 0 mm | - | - | - |
| 1778204718 | 11.11° C | 69% | 1010.1 hPa | 0 mm | - | - | - |
| 1778204453 | 11.11° C | 69% | 1010 hPa | 0 mm | - | - | - |
| 1778204418 | 11.11° C | 69% | 1010 hPa | 0 mm | - | - | - |
| 1778204118 | 10.56° C | 68% | 1010 hPa | 0 mm | - | - | - |
| 1778203818 | 11.11° C | 67% | 1009.8 hPa | 0 mm | - | - | - |
| 1778203518 | 11.11° C | 68% | 1009.8 hPa | 0 mm | - | - | - |
| 1778203218 | 11.67° C | 68% | 1009.8 hPa | 0 mm | - | - | - |
| 1778202918 | 11.67° C | 67% | 1009.8 hPa | 0 mm | - | - | - |
| 1778202618 | 11.67° C | 64% | 1009.7 hPa | 0 mm | - | - | - |
| 1778202318 | 12.22° C | 64% | 1009.8 hPa | 0 mm | - | - | - |
| 1778202018 | 12.22° C | 63% | 1009.6 hPa | 0 mm | - | - | - |
| 1778201718 | 12.78° C | 62% | 1009.6 hPa | 0 mm | - | - | - |
| 1778201418 | 12.78° C | 62% | 1009.6 hPa | 0 mm | - | - | - |
| 1778201118 | 12.78° C | 61% | 1009.6 hPa | 0 mm | - | - | - |
| 1778200818 | 13.33° C | 60% | 1009.5 hPa | 0 mm | - | - | - |
| 1778200518 | 13.33° C | 59% | 1009.5 hPa | 0 mm | - | - | - |
| 1778200218 | 13.33° C | 58% | 1009.4 hPa | 0 mm | - | - | - |
| 1778199918 | 13.33° C | 57% | 1009.3 hPa | 0 mm | - | - | - |
| 1778199618 | 13.89° C | 56% | 1009.2 hPa | 0 mm | - | - | - |
| 1778199318 | 13.89° C | 54% | 1009.1 hPa | 0 mm | - | - | - |
| 1778199298 | 14.44° C | 52% | 1009.1 hPa | 0 mm | - | - | - |
* Rain latest hour (hover to see other rain measurements)
** Current wind speed in m/s (hover to see current wind gust speed)